Content
SEND FEEDBACK

Daily
Averages
Monthly
Summary
United States of America

BURLINGTON, NORTH CAROLINA


Home > North America > United States > North Carolina
Elevation: 194 meters     Latitude: 36 02N     Longitude: 079 28W

WEATHER
 
SELECT A DAY
Number of Records: 171,318;   Date Range: 7/1/98 - 7/28/14
 
SHARE

PRINT THIS DATA

[ ← Previous Day ]
WEATHER ALMANAC - 25 DECEMBER, 2013
[ Next Day → ]
[ °F ]   °C
Weather ElementAverageHighLow
Temperature-2.1 °C3.3 °C (2:54 pm)-6.7 °C (6:54 am)
Dewpoint-12.4 °C-9.4 °C (7:54 pm)-14.4 °C (10:54 am)
Humidity48.2 %72 % (11:54 pm)27 % (3:54 pm)
Barometer1031.8 hPa1034.9 hPa (9:54 am)1029.5 hPa (11:54 pm)
Wind Speed3.9 km/h13 km/h (8:54 am)
Weather ElementAverage
Visibility16.1 km
Wind DirectionESE (96.5 °)

Weather ElementTotal
Precipitation---
Heating Degree Days20.1 (Base 18.3)
Averaged from 23 records on 25 December, 2013
WEATHER CONDITIONS BREAKOUT
WIND DIRECTION BREAKOUT
WEATHER BY HOUR - 25 DECEMBER, 2013
[ °F ]   °C
Local TimeTemperatureDewpointHumidityBarometerVisibilityWind DirectionWind SpeedGust SpeedPrecipitationEventsConditions
1:54 AM-3.3 °C-13.3 °C47 %1031.5 hPa16.1 kmNorth (350°)11.1 km/hClear
2:54 AM-3.9 °C-13.3 °C49 %1031.8 hPa16.1 kmNorth (360°)11.1 km/hClear
3:54 AM-3.9 °C-13.3 °C49 %1032.2 hPa16.1 kmNorth (350°)11.1 km/hClear
4:54 AM-5 °C-13.3 °C53 %1032.2 hPa16.1 kmNorth (360°)9.3 km/hClear
5:54 AM-5.6 °C-12.8 °C58 %1032.8 hPa16.1 kmNorth (360°)5.6 km/hClear
6:54 AM-6.7 °C-12.2 °C65 %1032.8 hPa16.1 kmNorth (10°)5.6 km/hClear
7:54 AM-6.1 °C-12.2 °C63 %1033.9 hPa16.1 kmNNE (30°)5.6 km/hClear
8:54 AM-3.3 °C-12.8 °C49 %1034.2 hPa16.1 kmNNE (30°)13 km/hClear
9:54 AM-1.7 °C-13.9 °C40 %1034.9 hPa16.1 kmNNE (20°)9.3 km/hClear
10:54 AM-0.6 °C-14.4 °C35 %1034.9 hPa16.1 kmCalmClear
11:54 AM0.6 °C-14.4 °C32 %1033.5 hPa16.1 kmCalmClear
12:54 PM2.2 °C-13.9 °C30 %1032.2 hPa16.1 kmCalmClear
1:54 PM2.8 °C-14.4 °C28 %1031.5 hPa16.1 kmNorth (350°)5.6 km/hClear
2:54 PM3.3 °C-13.9 °C28 %1030.8 hPa16.1 kmCalmClear
3:54 PM3.3 °C-14.4 °C27 %1030.8 hPa16.1 kmCalmClear
4:54 PM2.8 °C-14.4 °C28 %1031.2 hPa16.1 kmCalmClear
5:54 PM0 °C-11.7 °C42 %1030.8 hPa16.1 kmCalmClear
6:54 PM-2.2 °C-10.6 °C53 %1030.5 hPa16.1 kmCalmClear
7:54 PM-3.3 °C-9.4 °C63 %1030.5 hPa16.1 kmCalmClear
8:54 PM-3.3 °C-9.4 °C63 %1030.5 hPa16.1 kmCalmClear
9:54 PM-3.9 °C-9.4 °C66 %1030.5 hPa16.1 kmCalmClear
10:54 PM-4.4 °C-9.4 °C69 %1029.8 hPa16.1 kmCalmClear
11:54 PM-5 °C-9.4 °C72 %1029.5 hPa16.1 kmCalmClear
Hourly data recorded from KBUY, located 0 kilometers away from Burlington, North Carolina







STORIES FROM OUR PARTNERS